Regional Weather Roundup
Issued by NWS

Home | Current Version | Previous Version | Text Only | Print | Product List | Glossary Off
Versions: 1 2 3 4 5 6 7 8 9 10 11 12 13 14 15 16 17 18 19 20 21 22 23 24 25 26 27 28 29 30 31 32 33 34 35 36 37 38 39 40 41 42 43 44 45 46 47 48 49 50

000
ASUS43 KLSX 242157
RWRMO

WEATHER SUMMARY FOR MISSOURI
NATIONAL WEATHER SERVICE SPRINGFIELD MO
500 PM CDT SUN SEP 24 2017

NOTE: "FAIR" INDICATES FEW OR NO CLOUDS BELOW 12,000 FEET WITH NO
       SIGNIFICANT WEATHER AND/OR OBSTRUCTIONS TO VISIBILITY.
       CURRENT SKY AND/OR WEATHER CONDITIONS ARE NOT AVAILABLE FOR
       CHILLICOTHE AND FARMINGTON.

MOZ001>031-035>038-043-044-053-054-242300-
...NORTHERN AND WESTERN MISSOURI...

CITY           SKY/WX    TMP DP  RH WIND       PRES   REMARKS
KANSAS CTY INT MOSUNNY   86  67  52 S10       29.91F
LEE`S SUMMIT   MOSUNNY   88  65  46 SE14      29.92F HX  90
ST JOSEPH      SUNNY     88  66  48 S13       29.89F HX  90
CHILLICOTHE      N/A     89  66  46 S8        29.92F HX  91

$$
MOZ066>068-077>081-088>096-101>105-242300-
...SOUTHWEST MISSOURI...

CITY           SKY/WX    TMP DP  RH WIND       PRES   REMARKS
SPRINGFIELD    PTSUNNY   81  71  71 N5        29.95F
JOPLIN         MOSUNNY   87  68  52 SE7       29.91F HX  90
BRANSON        PTSUNNY   68  64  88 SW7       29.99F THUNDER

$$
MOZ032>034-039>042-045>050-055>058-069>072-242300-
...CENTRAL MISSOURI...

CITY           SKY/WX    TMP DP  RH WIND       PRES   REMARKS
COLUMBIA       NOT AVBL
JEFFERSON CITY SUNNY     88  67  49 CALM      29.92F HX  91
ROLLA          TSTM      85  66  53 SW6       29.98R
SEDALIA        SUNNY     89  68  49 S8        29.95F HX  93
WARRENSBURG    MOSUNNY   86  64  48 SE7       29.92F

$$
MOZ051-052-059>065-242300-
...EAST CENTRAL MISSOURI...

CITY           SKY/WX    TMP DP  RH WIND       PRES   REMARKS
ST LOUIS INTL  MOSUNNY   90  63  40 E6        29.96S HX  91

$$
MOZ072>076-082>087-097>100-106>115-242300-
...SOUTH CENTRAL AND SOUTHEAST MISSOURI...

CITY           SKY/WX    TMP DP  RH WIND       PRES   REMARKS
CAPE GIRARDEAU CLOUDY    78  64  61 S8        29.97R
POPLAR BLUFF   CLOUDY    85  66  53 E7        29.96R
WEST PLAINS    MOSUNNY   89  63  41 VRB5      29.98S HX  90

$$



USA.gov is the U.S. government's official web portal to all federal, state and local government web resources and services.